Time,TemperatureF,DewpointF,PressureIn,WindDirection,WindDirectionDegrees,WindSpeedMPH,WindSpeedGustMPH,Humidity,HourlyPrecipIn,Conditions,Clouds,dailyrainin,SoftwareType,DateUTC
2013-01-25 00:00:00,6.0,-8.3,30.37,NE,42,9.0,9.0,51,0.00,,,0.00,Wunderground v.1.15,2013-01-25 05:00:00,
2013-01-25 00:01:00,5.8,-8.5,30.37,NE,44,7.0,9.0,51,0.00,,,0.00,Wunderground v.1.15,2013-01-25 05:01:00,
2013-01-25 00:03:00,5.6,-8.3,30.37,NNE,22,9.0,11.0,52,0.00,,,0.00,Wunderground v.1.15,2013-01-25 05:03:00,
2013-01-25 00:09:00,5.6,-7.5,30.37,North,5,4.0,11.0,54,0.00,,,0.00,Wunderground v.1.15,2013-01-25 05:09:00,
2013-01-25 00:15:00,5.4,-7.7,30.36,North,355,1.0,7.0,54,0.00,,,0.00,Wunderground v.1.15,2013-01-25 05:15:00,
2013-01-25 00:21:00,5.2,-7.9,30.36,NNE,19,9.0,9.0,54,0.00,,,0.00,Wunderground v.1.15,2013-01-25 05:21:00,
2013-01-25 00:26:00,5.2,-7.9,30.37,NNE,17,5.0,9.0,54,0.00,,,0.00,Wunderground v.1.15,2013-01-25 05:26:00,
2013-01-25 00:32:00,5.2,-8.2,30.37,North,355,11.0,11.0,53,0.00,,,0.00,Wunderground v.1.15,2013-01-25 05:32:00,
2013-01-25 00:37:00,5.0,-8.4,30.37,North,9,13.0,14.0,53,0.00,,,0.00,Wunderground v.1.15,2013-01-25 05:37:00,
2013-01-25 00:43:00,5.0,-8.0,30.37,North,360,9.0,9.0,54,0.00,,,0.00,Wunderground v.1.15,2013-01-25 05:43:00,
2013-01-25 00:48:00,4.8,-8.2,30.37,NNW,346,7.0,11.0,54,0.00,,,0.00,Wunderground v.1.15,2013-01-25 05:48:00,
2013-01-25 00:54:00,4.7,-8.0,30.37,North,10,12.0,13.0,55,0.00,,,0.00,Wunderground v.1.15,2013-01-25 05:54:00,
2013-01-25 00:59:00,4.5,-8.1,30.37,NNE,18,11.0,13.0,55,0.00,,,0.00,Wunderground v.1.15,2013-01-25 05:59:00,
2013-01-25 01:05:00,4.3,-8.3,30.37,North,11,9.0,13.0,55,0.00,,,0.00,Wunderground v.1.15,2013-01-25 06:05:00,
2013-01-25 01:10:00,4.3,-8.0,30.37,North,9,7.0,8.0,56,0.00,,,0.00,Wunderground v.1.15,2013-01-25 06:10:00,
2013-01-25 01:16:00,4.1,-7.8,30.37,North,355,5.0,12.0,57,0.00,,,0.00,Wunderground v.1.15,2013-01-25 06:16:00,
2013-01-25 01:21:00,3.9,-7.6,30.37,NNW,339,14.0,14.0,58,0.00,,,0.00,Wunderground v.1.15,2013-01-25 06:21:00,
2013-01-25 01:27:00,3.9,-7.6,30.37,North,355,6.0,14.0,58,0.00,,,0.00,Wunderground v.1.15,2013-01-25 06:27:00,
2013-01-25 01:32:00,3.9,-7.6,30.37,North,11,11.0,11.0,58,0.00,,,0.00,Wunderground v.1.15,2013-01-25 06:32:00,
2013-01-25 01:37:00,3.9,-7.6,30.37,North,11,5.0,12.0,58,0.00,,,0.00,Wunderground v.1.15,2013-01-25 06:37:00,
2013-01-25 01:43:00,3.7,-7.5,30.38,North,351,4.0,11.0,59,0.00,,,0.00,Wunderground v.1.15,2013-01-25 06:43:00,
2013-01-25 01:49:00,3.5,-7.6,30.38,North,360,4.0,11.0,59,0.00,,,0.00,Wunderground v.1.15,2013-01-25 06:49:00,
2013-01-25 01:55:00,3.5,-7.6,30.38,North,355,2.0,11.0,59,0.00,,,0.00,Wunderground v.1.15,2013-01-25 06:55:00,
2013-01-25 02:00:00,3.4,-8.1,30.38,North,355,8.0,8.0,58,0.00,,,0.00,Wunderground v.1.15,2013-01-25 07:00:00,
2013-01-25 02:05:00,3.4,-8.1,30.38,North,360,2.0,13.0,58,0.00,,,0.00,Wunderground v.1.15,2013-01-25 07:05:00,
2013-01-25 02:10:00,3.2,-7.9,30.38,North,360,6.0,17.0,59,0.00,,,0.00,Wunderground v.1.15,2013-01-25 07:10:00,
2013-01-25 02:15:00,3.2,-7.9,30.38,North,5,6.0,17.0,59,0.00,,,0.00,Wunderground v.1.15,2013-01-25 07:15:00,
2013-01-25 02:20:00,3.2,-7.9,30.38,North,360,8.0,10.0,59,0.00,,,0.00,Wunderground v.1.15,2013-01-25 07:20:00,
2013-01-25 02:25:00,3.2,-7.9,30.38,North,355,9.0,15.0,59,0.00,,,0.00,Wunderground v.1.15,2013-01-25 07:25:00,
2013-01-25 02:30:00,3.2,-7.6,30.39,North,349,11.0,11.0,60,0.00,,,0.00,Wunderground v.1.15,2013-01-25 07:30:00,
2013-01-25 02:35:00,3.0,-7.8,30.39,North,360,10.0,11.0,60,0.00,,,0.00,Wunderground v.1.15,2013-01-25 07:35:00,
2013-01-25 02:40:00,3.0,-8.1,30.38,North,11,4.0,12.0,59,0.00,,,0.00,Wunderground v.1.15,2013-01-25 07:40:00,
2013-01-25 02:45:00,3.0,-8.1,30.38,NNE,16,13.0,19.0,59,0.00,,,0.00,Wunderground v.1.15,2013-01-25 07:45:00,
2013-01-25 02:50:00,3.0,-8.5,30.38,North,10,3.0,9.0,58,0.00,,,0.00,Wunderground v.1.15,2013-01-25 07:50:00,
2013-01-25 02:55:00,2.8,-8.7,30.38,North,10,6.0,11.0,58,0.00,,,0.00,Wunderground v.1.15,2013-01-25 07:55:00,
2013-01-25 03:00:00,2.8,-8.7,30.38,NNE,24,7.0,13.0,58,0.00,,,0.00,Wunderground v.1.15,2013-01-25 08:00:00,
2013-01-25 03:05:00,2.8,-8.7,30.38,NNE,17,14.0,14.0,58,0.00,,,0.00,Wunderground v.1.15,2013-01-25 08:05:00,
2013-01-25 03:10:00,2.8,-8.7,30.38,North,5,7.0,9.0,58,0.00,,,0.00,Wunderground v.1.15,2013-01-25 08:10:00,
2013-01-25 03:15:00,2.8,-8.7,30.38,NNE,17,4.0,13.0,58,0.00,,,0.00,Wunderground v.1.15,2013-01-25 08:15:00,
2013-01-25 03:20:00,2.6,-8.8,30.38,NNE,19,6.0,7.0,58,0.00,,,0.00,Wunderground v.1.15,2013-01-25 08:20:00,
2013-01-25 03:25:00,2.6,-8.5,30.38,NE,34,5.0,9.0,59,0.00,,,0.00,Wunderground v.1.15,2013-01-25 08:25:00,
2013-01-25 03:30:00,2.4,-8.7,30.38,NE,50,5.0,9.0,59,0.00,,,0.00,Wunderground v.1.15,2013-01-25 08:30:00,
2013-01-25 03:35:00,2.6,-8.1,30.38,NE,40,5.0,12.0,60,0.00,,,0.00,Wunderground v.1.15,2013-01-25 08:35:00,
2013-01-25 03:40:00,2.4,-8.3,30.38,NE,35,7.0,9.0,60,0.00,,,0.00,Wunderground v.1.15,2013-01-25 08:40:00,
2013-01-25 03:45:00,2.4,-8.0,30.38,North,10,4.0,10.0,61,0.00,,,0.00,Wunderground v.1.15,2013-01-25 08:45:00,
2013-01-25 03:50:00,2.4,-8.0,30.38,NNE,33,5.0,7.0,61,0.00,,,0.00,Wunderground v.1.15,2013-01-25 08:50:00,
2013-01-25 03:55:00,2.4,-8.0,30.39,NE,50,9.0,13.0,61,0.00,,,0.00,Wunderground v.1.15,2013-01-25 08:55:00,
2013-01-25 04:00:00,2.4,-8.3,30.39,NNE,26,7.0,8.0,60,0.00,,,0.00,Wunderground v.1.15,2013-01-25 09:00:00,
2013-01-25 04:05:00,2.4,-8.3,30.39,NE,38,12.0,14.0,60,0.00,,,0.00,Wunderground v.1.15,2013-01-25 09:05:00,
2013-01-25 04:10:00,2.4,-8.3,30.38,NE,50,4.0,15.0,60,0.00,,,0.00,Wunderground v.1.15,2013-01-25 09:10:00,
2013-01-25 04:15:00,2.2,-8.5,30.38,NE,52,7.0,15.0,60,0.00,,,0.00,Wunderground v.1.15,2013-01-25 09:15:00,
2013-01-25 04:20:00,2.2,-8.5,30.38,NE,53,6.0,12.0,60,0.00,,,0.00,Wunderground v.1.15,2013-01-25 09:20:00,
2013-01-25 04:25:00,2.2,-8.9,30.38,ENE,68,6.0,16.0,59,0.00,,,0.00,Wunderground v.1.15,2013-01-25 09:25:00,
2013-01-25 04:30:00,2.0,-9.1,30.38,ENE,58,6.0,11.0,59,0.00,,,0.00,Wunderground v.1.15,2013-01-25 09:30:00,
2013-01-25 04:35:00,2.0,-9.1,30.38,NE,48,6.0,11.0,59,0.00,,,0.00,Wunderground v.1.15,2013-01-25 09:35:00,
2013-01-25 04:41:00,2.0,-9.1,30.37,ENE,59,13.0,13.0,59,0.00,,,0.00,Wunderground v.1.15,2013-01-25 09:41:00,
2013-01-25 04:46:00,2.0,-9.1,30.37,NE,49,9.0,14.0,59,0.00,,,0.00,Wunderground v.1.15,2013-01-25 09:46:00,
2013-01-25 04:51:00,2.0,-8.7,30.37,NE,38,11.0,12.0,60,0.00,,,0.00,Wunderground v.1.15,2013-01-25 09:51:00,
2013-01-25 04:56:00,2.2,-8.9,30.37,NE,40,10.0,16.0,59,0.00,,,0.00,Wunderground v.1.15,2013-01-25 09:56:00,
2013-01-25 05:01:00,2.2,-9.2,30.37,NNE,23,9.0,14.0,58,0.00,,,0.00,Wunderground v.1.15,2013-01-25 10:01:00,
2013-01-25 05:06:00,2.2,-8.5,30.37,NE,52,9.0,14.0,60,0.00,,,0.00,Wunderground v.1.15,2013-01-25 10:06:00,
2013-01-25 05:11:00,2.2,-8.9,30.37,NE,40,10.0,12.0,59,0.00,,,0.00,Wunderground v.1.15,2013-01-25 10:11:00,
2013-01-25 05:16:00,2.0,-9.1,30.37,NE,44,11.0,15.0,59,0.00,,,0.00,Wunderground v.1.15,2013-01-25 10:16:00,
2013-01-25 05:21:00,2.2,-8.5,30.37,North,11,5.0,12.0,60,0.00,,,0.00,Wunderground v.1.15,2013-01-25 10:21:00,
2013-01-25 05:26:00,2.0,-8.7,30.37,NE,46,6.0,12.0,60,0.00,,,0.00,Wunderground v.1.15,2013-01-25 10:26:00,
2013-01-25 05:31:00,2.0,-8.7,30.37,NNE,27,6.0,11.0,60,0.00,,,0.00,Wunderground v.1.15,2013-01-25 10:31:00,
2013-01-25 05:36:00,2.2,-8.5,30.37,ENE,60,11.0,14.0,60,0.00,,,0.00,Wunderground v.1.15,2013-01-25 10:36:00,
2013-01-25 05:41:00,2.2,-8.5,30.38,NE,42,6.0,10.0,60,0.00,,,0.00,Wunderground v.1.15,2013-01-25 10:41:00,
2013-01-25 05:46:00,2.2,-8.2,30.38,NNE,25,10.0,13.0,61,0.00,,,0.00,Wunderground v.1.15,2013-01-25 10:46:00,
2013-01-25 05:51:00,2.2,-8.2,30.38,NE,40,10.0,11.0,61,0.00,,,0.00,Wunderground v.1.15,2013-01-25 10:51:00,
2013-01-25 05:56:00,1.8,-8.6,30.38,NE,51,9.0,11.0,61,0.00,,,0.00,Wunderground v.1.15,2013-01-25 10:56:00,
2013-01-25 06:01:00,1.7,-8.7,30.38,NE,50,5.0,7.0,61,0.00,,,0.00,Wunderground v.1.15,2013-01-25 11:01:00,
2013-01-25 06:06:00,1.3,-8.7,30.38,NE,51,4.0,7.0,62,0.00,,,0.00,Wunderground v.1.15,2013-01-25 11:06:00,
2013-01-25 06:11:00,1.1,-8.9,30.39,NE,49,2.0,6.0,62,0.00,,,0.00,Wunderground v.1.15,2013-01-25 11:11:00,
2013-01-25 06:16:00,0.9,-8.8,30.39,NE,51,3.0,7.0,63,0.00,,,0.00,Wunderground v.1.15,2013-01-25 11:16:00,
2013-01-25 06:21:00,0.7,-9.0,30.39,ENE,57,4.0,6.0,63,0.00,,,0.00,Wunderground v.1.15,2013-01-25 11:21:00,
2013-01-25 06:26:00,0.7,-9.0,30.40,ENE,58,2.0,6.0,63,0.00,,,0.00,Wunderground v.1.15,2013-01-25 11:26:00,
2013-01-25 06:31:00,0.5,-8.8,30.40,ENE,61,1.0,4.0,64,0.00,,,0.00,Wunderground v.1.15,2013-01-25 11:31:00,
2013-01-25 06:36:00,0.3,-9.0,30.40,ENE,70,7.0,7.0,64,0.00,,,0.00,Wunderground v.1.15,2013-01-25 11:36:00,
2013-01-25 06:41:00,0.3,-9.0,30.39,East,80,10.0,10.0,64,0.00,,,0.00,Wunderground v.1.15,2013-01-25 11:41:00,
2013-01-25 06:46:00,0.3,-9.0,30.39,East,79,3.0,10.0,64,0.00,,,0.00,Wunderground v.1.15,2013-01-25 11:46:00,
2013-01-25 06:51:00,0.3,-9.0,30.39,ENE,69,2.0,8.0,64,0.00,,,0.00,Wunderground v.1.15,2013-01-25 11:51:00,
2013-01-25 06:56:00,0.3,-10.0,30.39,ENE,75,2.0,10.0,61,0.00,,,0.00,Wunderground v.1.15,2013-01-25 11:56:00,
2013-01-25 07:01:00,0.3,-9.0,30.39,ENE,72,6.0,9.0,64,0.00,,,0.00,Wunderground v.1.15,2013-01-25 12:01:00,
2013-01-25 07:07:00,0.3,-9.0,30.39,NE,55,9.0,12.0,64,0.00,,,0.00,Wunderground v.1.15,2013-01-25 12:07:00,
2013-01-25 07:12:00,0.3,-9.0,30.39,ENE,71,4.0,5.0,64,0.00,,,0.00,Wunderground v.1.15,2013-01-25 12:12:00,
2013-01-25 07:17:00,0.5,-8.8,30.39,ENE,64,5.0,10.0,64,0.00,,,0.00,Wunderground v.1.15,2013-01-25 12:17:00,
2013-01-25 07:22:00,0.5,-8.8,30.39,ENE,76,2.0,9.0,64,0.00,,,0.00,Wunderground v.1.15,2013-01-25 12:22:00,
2013-01-25 07:27:00,0.5,-8.8,30.40,ENE,74,5.0,9.0,64,0.00,,,0.00,Wunderground v.1.15,2013-01-25 12:27:00,
2013-01-25 07:32:00,0.5,-8.8,30.40,ENE,75,2.0,7.0,64,0.00,,,0.00,Wunderground v.1.15,2013-01-25 12:32:00,
2013-01-25 07:37:00,0.5,-8.8,30.40,ENE,75,1.0,7.0,64,0.00,,,0.00,Wunderground v.1.15,2013-01-25 12:37:00,
2013-01-25 07:42:00,0.5,-8.8,30.40,ENE,75,2.0,4.0,64,0.00,,,0.00,Wunderground v.1.15,2013-01-25 12:42:00,
2013-01-25 07:47:00,0.7,-8.6,30.40,ENE,73,4.0,7.0,64,0.00,,,0.00,Wunderground v.1.15,2013-01-25 12:47:00,
2013-01-25 07:52:00,0.7,-8.6,30.40,ENE,71,4.0,6.0,64,0.00,,,0.00,Wunderground v.1.15,2013-01-25 12:52:00,
2013-01-25 07:57:00,0.7,-8.6,30.40,ENE,71,3.0,6.0,64,0.00,,,0.00,Wunderground v.1.15,2013-01-25 12:57:00,
2013-01-25 08:02:00,0.9,-8.4,30.40,ENE,71,2.0,4.0,64,0.00,,,0.00,Wunderground v.1.15,2013-01-25 13:02:00,
2013-01-25 08:07:00,1.1,-8.3,30.40,ENE,71,1.0,4.0,64,0.00,,,0.00,Wunderground v.1.15,2013-01-25 13:07:00,
2013-01-25 08:12:00,1.5,-7.9,30.40,ENE,71,3.0,5.0,64,0.00,,,0.00,Wunderground v.1.15,2013-01-25 13:12:00,
2013-01-25 08:17:00,1.7,-7.7,30.40,ENE,71,1.0,5.0,64,0.00,,,0.00,Wunderground v.1.15,2013-01-25 13:17:00,
2013-01-25 08:22:00,2.0,-7.4,30.40,ENE,71,0.0,1.0,64,0.00,,,0.00,Wunderground v.1.15,2013-01-25 13:22:00,
2013-01-25 08:27:00,2.2,-7.5,30.40,ENE,71,0.0,1.0,63,0.00,,,0.00,Wunderground v.1.15,2013-01-25 13:27:00,
2013-01-25 08:32:00,2.2,-7.5,30.40,ENE,71,2.0,3.0,63,0.00,,,0.00,Wunderground v.1.15,2013-01-25 13:32:00,
2013-01-25 08:37:00,1.8,-7.6,30.40,ENE,71,2.0,4.0,64,0.00,,,0.00,Wunderground v.1.15,2013-01-25 13:37:00,
2013-01-25 08:42:00,1.8,-7.6,30.40,ENE,71,2.0,2.0,64,0.00,,,0.00,Wunderground v.1.15,2013-01-25 13:42:00,
2013-01-25 08:47:00,1.8,-7.3,30.40,ENE,71,0.0,3.0,65,0.00,,,0.00,Wunderground v.1.15,2013-01-25 13:47:00,
2013-01-25 08:52:00,1.8,-7.0,30.40,ENE,71,2.0,2.0,66,0.00,,,0.00,Wunderground v.1.15,2013-01-25 13:52:00,
2013-01-25 08:57:00,1.8,-7.0,30.40,ENE,71,3.0,3.0,66,0.00,,,0.00,Wunderground v.1.15,2013-01-25 13:57:00,
2013-01-25 09:02:00,1.8,-7.0,30.40,ENE,71,2.0,4.0,66,0.00,,,0.00,Wunderground v.1.15,2013-01-25 14:02:00,
2013-01-25 09:07:00,2.0,-6.8,30.40,ENE,71,1.0,4.0,66,0.00,,,0.00,Wunderground v.1.15,2013-01-25 14:07:00,
2013-01-25 09:12:00,2.0,-6.8,30.40,ENE,71,0.0,2.0,66,0.00,,,0.00,Wunderground v.1.15,2013-01-25 14:12:00,
2013-01-25 09:17:00,2.4,-6.7,30.40,ENE,71,0.0,2.0,65,0.00,,,0.00,Wunderground v.1.15,2013-01-25 14:17:00,
2013-01-25 09:22:00,2.6,-6.5,30.40,ENE,71,0.0,2.0,65,0.00,,,0.00,Wunderground v.1.15,2013-01-25 14:22:00,
2013-01-25 09:27:00,2.8,-6.3,30.40,ENE,71,4.0,4.0,65,0.00,,,0.00,Wunderground v.1.15,2013-01-25 14:27:00,
2013-01-25 09:32:00,2.6,-6.8,30.40,North,11,3.0,6.0,64,0.00,,,0.00,Wunderground v.1.15,2013-01-25 14:32:00,
2013-01-25 09:37:00,2.8,-6.6,30.40,NNW,340,3.0,6.0,64,0.00,,,0.00,Wunderground v.1.15,2013-01-25 14:37:00,
2013-01-25 09:42:00,2.8,-6.6,30.40,NNW,338,2.0,4.0,64,0.00,,,0.00,Wunderground v.1.15,2013-01-25 14:42:00,
2013-01-25 09:47:00,3.2,-6.2,30.40,NNW,338,2.0,4.0,64,0.00,,,0.00,Wunderground v.1.15,2013-01-25 14:47:00,
2013-01-25 09:52:00,3.7,-5.8,30.40,NNW,327,2.0,4.0,64,0.00,,,0.00,Wunderground v.1.15,2013-01-25 14:52:00,
2013-01-25 09:57:00,4.5,-5.3,30.40,NNW,327,0.0,4.0,63,0.00,,,0.00,Wunderground v.1.15,2013-01-25 14:57:00,
2013-01-25 10:02:00,4.8,-6.1,30.40,NNW,327,1.0,5.0,60,0.00,,,0.00,Wunderground v.1.15,2013-01-25 15:02:00,
2013-01-25 10:07:00,4.5,-5.7,30.40,NW,325,5.0,6.0,62,0.00,,,0.00,Wunderground v.1.15,2013-01-25 15:07:00,
2013-01-25 10:13:00,4.3,-5.9,30.39,NW,315,2.0,4.0,62,0.00,,,0.00,Wunderground v.1.15,2013-01-25 15:13:00,
2013-01-25 10:18:00,4.3,-6.2,30.39,NW,315,0.0,5.0,61,0.00,,,0.00,Wunderground v.1.15,2013-01-25 15:18:00,
2013-01-25 10:23:00,5.0,-5.2,30.39,NW,315,2.0,2.0,62,0.00,,,0.00,Wunderground v.1.15,2013-01-25 15:23:00,
2013-01-25 10:28:00,5.2,-5.3,30.39,NW,311,2.0,6.0,61,0.00,,,0.00,Wunderground v.1.15,2013-01-25 15:28:00,
2013-01-25 10:33:00,4.8,-5.7,30.39,WNW,286,2.0,7.0,61,0.00,,,0.00,Wunderground v.1.15,2013-01-25 15:33:00,
2013-01-25 10:38:00,5.2,-4.7,30.39,WNW,282,3.0,7.0,63,0.00,,,0.00,Wunderground v.1.15,2013-01-25 15:38:00,
2013-01-25 10:44:00,5.4,-5.2,30.38,West,271,4.0,8.0,61,0.00,,,0.00,Wunderground v.1.15,2013-01-25 15:44:00,
2013-01-25 10:49:00,5.0,-5.9,30.38,West,267,6.0,8.0,60,0.00,,,0.00,Wunderground v.1.15,2013-01-25 15:49:00,
2013-01-25 10:54:00,5.0,-5.5,30.38,West,267,3.0,6.0,61,0.00,,,0.00,Wunderground v.1.15,2013-01-25 15:54:00,
2013-01-25 10:59:00,5.4,-5.2,30.37,West,263,0.0,6.0,61,0.00,,,0.00,Wunderground v.1.15,2013-01-25 15:59:00,
2013-01-25 11:04:00,6.3,-4.6,30.37,West,263,5.0,5.0,60,0.00,,,0.00,Wunderground v.1.15,2013-01-25 16:04:00,
2013-01-25 11:09:00,5.8,-5.5,30.37,West,263,3.0,5.0,59,0.00,,,0.00,Wunderground v.1.15,2013-01-25 16:09:00,
2013-01-25 11:14:00,5.8,-5.5,30.36,West,262,3.0,6.0,59,0.00,,,0.00,Wunderground v.1.15,2013-01-25 16:14:00,
2013-01-25 11:19:00,6.0,-4.9,30.36,West,262,4.0,6.0,60,0.00,,,0.00,Wunderground v.1.15,2013-01-25 16:19:00,
2013-01-25 11:24:00,6.1,-5.2,30.36,West,259,0.0,6.0,59,0.00,,,0.00,Wunderground v.1.15,2013-01-25 16:24:00,
2013-01-25 11:29:00,7.0,-4.0,30.35,West,259,5.0,6.0,60,0.00,,,0.00,Wunderground v.1.15,2013-01-25 16:29:00,
2013-01-25 11:34:00,7.2,-4.1,30.35,WSW,258,7.0,9.0,59,0.00,,,0.00,Wunderground v.1.15,2013-01-25 16:34:00,
2013-01-25 11:39:00,7.0,-4.7,30.35,WSW,257,7.0,9.0,58,0.00,,,0.00,Wunderground v.1.15,2013-01-25 16:39:00,
2013-01-25 11:44:00,7.0,-4.0,30.34,WSW,256,4.0,10.0,60,0.00,,,0.00,Wunderground v.1.15,2013-01-25 16:44:00,
2013-01-25 11:49:00,7.4,-4.3,30.34,WSW,256,6.0,10.0,58,0.00,,,0.00,Wunderground v.1.15,2013-01-25 16:49:00,
2013-01-25 11:54:00,7.9,-3.8,30.34,WSW,254,5.0,10.0,58,0.00,,,0.00,Wunderground v.1.15,2013-01-25 16:54:00,
2013-01-25 11:59:00,7.7,-4.8,30.32,SW,230,3.0,10.0,56,0.00,,,0.00,Wunderground v.1.15,2013-01-25 16:59:00,
2013-01-25 12:04:00,7.7,-4.8,30.32,SW,232,4.0,5.0,56,0.00,,,0.00,Wunderground v.1.15,2013-01-25 17:04:00,
2013-01-25 12:09:00,7.9,-4.6,30.32,SW,236,4.0,9.0,56,0.00,,,0.00,Wunderground v.1.15,2013-01-25 17:09:00,
2013-01-25 12:14:00,8.3,-4.6,30.31,SW,232,0.0,4.0,55,0.00,,,0.00,Wunderground v.1.15,2013-01-25 17:14:00,
2013-01-25 12:19:00,8.6,-4.7,30.31,SW,218,1.0,6.0,54,0.00,,,0.00,Wunderground v.1.15,2013-01-25 17:19:00,
2013-01-25 12:24:00,8.8,-3.7,30.31,SSW,205,4.0,6.0,56,0.00,,,0.00,Wunderground v.1.15,2013-01-25 17:24:00,
2013-01-25 12:29:00,9.7,-4.0,30.30,SSW,207,4.0,6.0,53,0.00,,,0.00,Wunderground v.1.15,2013-01-25 17:29:00,
2013-01-25 12:34:00,9.9,-3.5,30.30,SSE,157,6.0,9.0,54,0.00,,,0.00,Wunderground v.1.15,2013-01-25 17:34:00,
2013-01-25 12:39:00,10.0,-4.6,30.30,South,171,2.0,9.0,51,0.00,,,0.00,Wunderground v.1.15,2013-01-25 17:39:00,
2013-01-25 12:44:00,10.2,-3.2,30.29,South,178,3.0,5.0,54,0.00,,,0.00,Wunderground v.1.15,2013-01-25 17:44:00,
2013-01-25 12:49:00,11.1,-2.3,30.29,South,180,0.0,5.0,54,0.00,,,0.00,Wunderground v.1.15,2013-01-25 17:49:00,
2013-01-25 12:54:00,10.7,-4.7,30.29,SSW,192,2.0,6.0,49,0.00,,,0.00,Wunderground v.1.15,2013-01-25 17:54:00,
2013-01-25 12:59:00,10.7,-4.7,30.28,SSW,193,3.0,6.0,49,0.00,,,0.00,Wunderground v.1.15,2013-01-25 17:59:00,
2013-01-25 13:04:00,11.1,-3.1,30.28,South,188,6.0,6.0,52,0.00,,,0.00,Wunderground v.1.15,2013-01-25 18:04:00,
2013-01-25 13:09:00,10.7,-4.3,30.28,South,189,4.0,7.0,50,0.00,,,0.00,Wunderground v.1.15,2013-01-25 18:09:00,
2013-01-25 13:14:00,10.7,-3.9,30.27,SSW,201,1.0,7.0,51,0.00,,,0.00,Wunderground v.1.15,2013-01-25 18:14:00,
2013-01-25 13:19:00,11.1,-3.9,30.27,SSW,201,2.0,7.0,50,0.00,,,0.00,Wunderground v.1.15,2013-01-25 18:19:00,
2013-01-25 13:24:00,10.9,-4.1,30.27,SSW,208,3.0,7.0,50,0.00,,,0.00,Wunderground v.1.15,2013-01-25 18:24:00,
2013-01-25 13:29:00,11.1,-3.9,30.26,SW,229,7.0,9.0,50,0.00,,,0.00,Wunderground v.1.15,2013-01-25 18:29:00,
2013-01-25 13:34:00,10.7,-4.3,30.26,SW,229,3.0,7.0,50,0.00,,,0.00,Wunderground v.1.15,2013-01-25 18:34:00,
2013-01-25 13:39:00,10.7,-4.3,30.26,SW,229,3.0,7.0,50,0.00,,,0.00,Wunderground v.1.15,2013-01-25 18:39:00,
2013-01-25 13:44:00,10.7,-4.7,30.25,SW,233,4.0,10.0,49,0.00,,,0.00,Wunderground v.1.15,2013-01-25 18:44:00,
2013-01-25 13:49:00,10.9,-4.6,30.25,SW,223,3.0,5.0,49,0.00,,,0.00,Wunderground v.1.15,2013-01-25 18:49:00,
2013-01-25 13:55:00,11.4,-3.7,30.25,SW,225,4.0,6.0,50,0.00,,,0.00,Wunderground v.1.15,2013-01-25 18:55:00,
2013-01-25 13:59:00,11.4,-5.0,30.24,SSW,206,5.0,5.0,47,0.00,,,0.00,Wunderground v.1.15,2013-01-25 18:59:00,
2013-01-25 14:05:00,11.4,-4.5,30.24,SSW,206,0.0,5.0,48,0.00,,,0.00,Wunderground v.1.15,2013-01-25 19:05:00,
2013-01-25 14:10:00,12.1,-4.8,30.24,South,188,6.0,6.0,46,0.00,,,0.00,Wunderground v.1.15,2013-01-25 19:10:00,
2013-01-25 14:15:00,11.9,-4.9,30.23,South,188,2.0,6.0,46,0.00,,,0.00,Wunderground v.1.15,2013-01-25 19:15:00,
2013-01-25 14:20:00,12.3,-4.6,30.23,South,188,0.0,2.0,46,0.00,,,0.00,Wunderground v.1.15,2013-01-25 19:20:00,
2013-01-25 14:25:00,13.1,-4.3,30.23,South,188,4.0,4.0,45,0.00,,,0.00,Wunderground v.1.15,2013-01-25 19:25:00,
2013-01-25 14:30:00,13.1,-4.8,30.23,South,190,0.0,1.0,44,0.00,,,0.00,Wunderground v.1.15,2013-01-25 19:30:00,
2013-01-25 14:35:00,13.6,-3.8,30.23,South,190,1.0,5.0,45,0.00,,,0.00,Wunderground v.1.15,2013-01-25 19:35:00,
2013-01-25 14:40:00,13.1,-5.7,30.23,South,190,3.0,4.0,42,0.00,,,0.00,Wunderground v.1.15,2013-01-25 19:40:00,
2013-01-25 14:45:00,12.1,-6.2,30.23,SSW,200,2.0,6.0,43,0.00,,,0.00,Wunderground v.1.15,2013-01-25 19:45:00,
2013-01-25 14:50:00,11.7,-7.0,30.23,SSW,200,0.0,3.0,42,0.00,,,0.00,Wunderground v.1.15,2013-01-25 19:50:00,
2013-01-25 14:55:00,11.6,-6.1,30.23,SSW,202,0.0,5.0,44,0.00,,,0.00,Wunderground v.1.15,2013-01-25 19:55:00,
2013-01-25 15:00:00,11.6,-5.7,30.23,SSW,203,2.0,3.0,45,0.00,,,0.00,Wunderground v.1.15,2013-01-25 20:00:00,
2013-01-25 15:05:00,11.6,-5.7,30.23,SSW,203,0.0,3.0,45,0.00,,,0.00,Wunderground v.1.15,2013-01-25 20:05:00,
2013-01-25 15:10:00,11.6,-6.1,30.23,SSW,203,0.0,2.0,44,0.00,,,0.00,Wunderground v.1.15,2013-01-25 20:10:00,
2013-01-25 15:15:00,11.7,-6.1,30.22,SSW,203,2.0,3.0,44,0.00,,,0.00,Wunderground v.1.15,2013-01-25 20:15:00,
2013-01-25 15:20:00,11.7,-5.1,30.22,SSW,203,2.0,3.0,46,0.00,,,0.00,Wunderground v.1.15,2013-01-25 20:20:00,
2013-01-25 15:25:00,11.6,-5.2,30.22,SSW,203,3.0,4.0,46,0.00,,,0.00,Wunderground v.1.15,2013-01-25 20:25:00,
2013-01-25 15:30:00,11.4,-5.9,30.22,SSW,203,1.0,3.0,45,0.00,,,0.00,Wunderground v.1.15,2013-01-25 20:30:00,
2013-01-25 15:35:00,11.6,-4.8,30.22,SSW,203,0.0,3.0,47,0.00,,,0.00,Wunderground v.1.15,2013-01-25 20:35:00,
2013-01-25 15:40:00,11.6,-5.7,30.22,SSW,203,1.0,2.0,45,0.00,,,0.00,Wunderground v.1.15,2013-01-25 20:40:00,
2013-01-25 15:45:00,11.4,-5.4,30.22,SSW,203,3.0,3.0,46,0.00,,,0.00,Wunderground v.1.15,2013-01-25 20:45:00,
2013-01-25 15:50:00,11.6,-4.3,30.22,SSW,203,0.0,2.0,48,0.00,,,0.00,Wunderground v.1.15,2013-01-25 20:50:00,
2013-01-25 15:55:00,11.6,-4.3,30.22,SSW,203,1.0,3.0,48,0.00,,,0.00,Wunderground v.1.15,2013-01-25 20:55:00,
2013-01-25 16:00:00,11.6,-4.3,30.22,SSW,203,0.0,2.0,48,0.00,,,0.00,Wunderground v.1.15,2013-01-25 21:00:00,
2013-01-25 16:05:00,11.6,-3.9,30.22,SSW,203,2.0,3.0,49,0.00,,,0.00,Wunderground v.1.15,2013-01-25 21:05:00,
2013-01-25 16:10:00,11.6,-4.3,30.21,SSW,203,2.0,2.0,48,0.00,,,0.00,Wunderground v.1.15,2013-01-25 21:10:00,
2013-01-25 16:15:00,11.6,-4.8,30.21,SSW,203,1.0,2.0,47,0.00,,,0.00,Wunderground v.1.15,2013-01-25 21:15:00,
2013-01-25 16:20:00,11.4,-5.4,30.21,SSW,203,1.0,2.0,46,0.00,,,0.00,Wunderground v.1.15,2013-01-25 21:20:00,
2013-01-25 16:26:00,11.4,-5.0,30.21,SSW,203,2.0,3.0,47,0.00,,,0.00,Wunderground v.1.15,2013-01-25 21:26:00,
2013-01-25 16:31:00,11.4,-5.0,30.21,SSW,203,3.0,3.0,47,0.00,,,0.00,Wunderground v.1.15,2013-01-25 21:31:00,
2013-01-25 16:36:00,11.4,-4.5,30.21,SSW,203,0.0,3.0,48,0.00,,,0.00,Wunderground v.1.15,2013-01-25 21:36:00,
2013-01-25 16:41:00,11.4,-4.5,30.21,SSW,203,2.0,2.0,48,0.00,,,0.00,Wunderground v.1.15,2013-01-25 21:41:00,
2013-01-25 16:46:00,11.4,-4.5,30.21,SSW,203,0.0,3.0,48,0.00,,,0.00,Wunderground v.1.15,2013-01-25 21:46:00,
2013-01-25 16:51:00,11.4,-4.5,30.21,SSW,203,0.0,3.0,48,0.00,,,0.00,Wunderground v.1.15,2013-01-25 21:51:00,
2013-01-25 16:56:00,11.4,-4.5,30.21,SSW,203,0.0,3.0,48,0.00,,,0.00,Wunderground v.1.15,2013-01-25 21:56:00,
2013-01-25 17:01:00,11.4,-4.5,30.21,SSW,203,0.0,1.0,48,0.00,,,0.00,Wunderground v.1.15,2013-01-25 22:01:00,
2013-01-25 17:06:00,11.4,-4.1,30.21,SSW,203,0.0,1.0,49,0.00,,,0.00,Wunderground v.1.15,2013-01-25 22:06:00,
2013-01-25 17:11:00,11.4,-4.5,30.20,SSW,203,0.0,2.0,48,0.00,,,0.00,Wunderground v.1.15,2013-01-25 22:11:00,
2013-01-25 17:16:00,11.4,-4.1,30.20,SSW,203,0.0,2.0,49,0.00,,,0.00,Wunderground v.1.15,2013-01-25 22:16:00,
2013-01-25 17:21:00,11.4,-3.7,30.20,SSW,203,0.0,0.0,50,0.00,,,0.00,Wunderground v.1.15,2013-01-25 22:21:00,
2013-01-25 17:26:00,11.4,-3.7,30.19,SSW,203,0.0,0.0,50,0.00,,,0.00,Wunderground v.1.15,2013-01-25 22:26:00,
2013-01-25 17:31:00,11.4,-3.3,30.19,SSW,203,0.0,0.0,51,0.00,,,0.00,Wunderground v.1.15,2013-01-25 22:31:00,
2013-01-25 17:36:00,11.4,-3.7,30.19,SSW,203,0.0,0.0,50,0.00,,,0.00,Wunderground v.1.15,2013-01-25 22:36:00,
2013-01-25 17:41:00,11.4,-3.3,30.18,SSW,203,0.0,0.0,51,0.00,,,0.00,Wunderground v.1.15,2013-01-25 22:41:00,
2013-01-25 17:46:00,11.4,-3.3,30.18,SSW,203,0.0,0.0,51,0.00,,,0.00,Wunderground v.1.15,2013-01-25 22:46:00,
2013-01-25 17:51:00,11.4,-2.8,30.18,SSW,203,0.0,0.0,52,0.00,,,0.00,Wunderground v.1.15,2013-01-25 22:51:00,
2013-01-25 17:56:00,11.4,-2.0,30.17,SSW,203,0.0,0.0,54,0.00,,,0.00,Wunderground v.1.15,2013-01-25 22:56:00,
2013-01-25 18:01:00,11.4,-1.7,30.17,SSW,203,1.0,1.0,55,0.00,,,0.00,Wunderground v.1.15,2013-01-25 23:01:00,
2013-01-25 18:06:00,11.2,-2.6,30.17,SSW,203,2.0,2.0,53,0.00,,,0.00,Wunderground v.1.15,2013-01-25 23:06:00,
2013-01-25 18:11:00,11.2,-3.0,30.17,SSW,203,0.0,1.0,52,0.00,,,0.00,Wunderground v.1.15,2013-01-25 23:11:00,
2013-01-25 18:16:00,11.2,-2.6,30.17,SSW,203,0.0,1.0,53,0.00,,,0.00,Wunderground v.1.15,2013-01-25 23:16:00,
2013-01-25 18:21:00,11.2,-2.6,30.17,SSW,203,0.0,0.0,53,0.00,,,0.00,Wunderground v.1.15,2013-01-25 23:21:00,
2013-01-25 18:26:00,11.2,-2.6,30.17,SSW,203,0.0,0.0,53,0.00,,,0.00,Wunderground v.1.15,2013-01-25 23:26:00,
2013-01-25 18:31:00,11.2,-2.6,30.17,SSW,203,0.0,0.0,53,0.00,,,0.00,Wunderground v.1.15,2013-01-25 23:31:00,
2013-01-25 18:36:00,11.2,-2.6,30.17,SSW,203,0.0,1.0,53,0.00,,,0.00,Wunderground v.1.15,2013-01-25 23:36:00,
2013-01-25 18:41:00,11.2,-2.6,30.17,SSW,203,0.0,0.0,53,0.00,,,0.00,Wunderground v.1.15,2013-01-25 23:41:00,
2013-01-25 18:46:00,11.2,-2.6,30.17,SSW,203,0.0,0.0,53,0.00,,,0.00,Wunderground v.1.15,2013-01-25 23:46:00,
2013-01-25 18:51:00,11.2,-1.8,30.17,SSW,203,0.0,0.0,55,0.00,,,0.00,Wunderground v.1.15,2013-01-25 23:51:00,
2013-01-25 18:56:00,11.2,-1.8,30.17,SSW,203,0.0,0.0,55,0.00,,,0.00,Wunderground v.1.15,2013-01-25 23:56:00,
2013-01-25 19:01:00,11.2,-1.8,30.17,SSW,203,0.0,0.0,55,0.00,,,0.00,Wunderground v.1.15,2013-01-26 00:01:00,
2013-01-25 19:06:00,11.2,-1.5,30.17,SSW,203,0.0,0.0,56,0.00,,,0.00,Wunderground v.1.15,2013-01-26 00:06:00,
2013-01-25 19:11:00,11.2,-1.5,30.16,SSW,203,0.0,0.0,56,0.00,,,0.00,Wunderground v.1.15,2013-01-26 00:11:00,
2013-01-25 19:16:00,11.2,-1.8,30.16,SSW,203,0.0,0.0,55,0.00,,,0.00,Wunderground v.1.15,2013-01-26 00:16:00,
2013-01-25 19:21:00,11.2,-1.8,30.16,SSW,203,0.0,0.0,55,0.00,,,0.00,Wunderground v.1.15,2013-01-26 00:21:00,
2013-01-25 19:26:00,11.2,-1.5,30.16,SSW,203,0.0,0.0,56,0.00,,,0.00,Wunderground v.1.15,2013-01-26 00:26:00,
2013-01-25 19:31:00,11.4,-1.7,30.16,SSW,203,0.0,0.0,55,0.00,,,0.00,Wunderground v.1.15,2013-01-26 00:31:00,
2013-01-25 19:36:00,11.4,-1.7,30.16,SSW,203,0.0,0.0,55,0.00,,,0.00,Wunderground v.1.15,2013-01-26 00:36:00,
2013-01-25 19:41:00,11.4,-1.7,30.15,SSW,203,0.0,0.0,55,0.00,,,0.00,Wunderground v.1.15,2013-01-26 00:41:00,
2013-01-25 19:46:00,11.4,-1.7,30.15,SSW,203,0.0,0.0,55,0.00,,,0.00,Wunderground v.1.15,2013-01-26 00:46:00,
2013-01-25 19:51:00,11.4,-2.0,30.15,SSW,203,0.0,0.0,54,0.00,,,0.00,Wunderground v.1.15,2013-01-26 00:51:00,
2013-01-25 19:56:00,11.4,-2.4,30.15,SSW,203,0.0,0.0,53,0.00,,,0.00,Wunderground v.1.15,2013-01-26 00:56:00,
2013-01-25 20:01:00,11.4,-2.4,30.15,SSW,203,0.0,0.0,53,0.00,,,0.00,Wunderground v.1.15,2013-01-26 01:01:00,
2013-01-25 20:06:00,11.4,-2.4,30.15,SSW,203,0.0,0.0,53,0.00,,,0.00,Wunderground v.1.15,2013-01-26 01:06:00,
2013-01-25 20:11:00,11.4,-2.8,30.15,SSW,203,0.0,0.0,52,0.00,,,0.00,Wunderground v.1.15,2013-01-26 01:11:00,
2013-01-25 20:16:00,11.4,-2.4,30.15,SSW,203,0.0,0.0,53,0.00,,,0.00,Wunderground v.1.15,2013-01-26 01:16:00,
2013-01-25 20:21:00,11.6,-1.9,30.15,SSW,203,0.0,1.0,54,0.00,,,0.00,Wunderground v.1.15,2013-01-26 01:21:00,
2013-01-25 20:26:00,11.6,-2.7,30.14,SSW,203,0.0,1.0,52,0.00,,,0.00,Wunderground v.1.15,2013-01-26 01:26:00,
2013-01-25 20:31:00,11.6,-3.1,30.14,SSW,203,0.0,0.0,51,0.00,,,0.00,Wunderground v.1.15,2013-01-26 01:31:00,
2013-01-25 20:36:00,11.6,-2.3,30.14,SSW,203,0.0,0.0,53,0.00,,,0.00,Wunderground v.1.15,2013-01-26 01:36:00,
2013-01-25 20:42:00,11.6,-3.5,30.14,SSW,203,0.0,0.0,50,0.00,,,0.00,Wunderground v.1.15,2013-01-26 01:42:00,
2013-01-25 20:47:00,11.6,-2.3,30.14,SSW,203,0.0,2.0,53,0.00,,,0.00,Wunderground v.1.15,2013-01-26 01:47:00,
2013-01-25 20:52:00,11.6,-2.7,30.14,SSW,203,1.0,2.0,52,0.00,,,0.00,Wunderground v.1.15,2013-01-26 01:52:00,
2013-01-25 20:57:00,11.6,-2.3,30.14,SSW,203,1.0,2.0,53,0.00,,,0.00,Wunderground v.1.15,2013-01-26 01:57:00,
2013-01-25 21:02:00,11.6,-1.9,30.14,SSW,203,0.0,2.0,54,0.00,,,0.00,Wunderground v.1.15,2013-01-26 02:02:00,
2013-01-25 21:07:00,11.4,-2.0,30.14,SSW,203,1.0,2.0,54,0.00,,,0.00,Wunderground v.1.15,2013-01-26 02:07:00,
2013-01-25 21:12:00,11.4,-2.0,30.14,SSW,203,0.0,3.0,54,0.00,,,0.00,Wunderground v.1.15,2013-01-26 02:12:00,
2013-01-25 21:17:00,11.4,-1.3,30.14,SSW,203,1.0,3.0,56,0.00,,,0.00,Wunderground v.1.15,2013-01-26 02:17:00,
2013-01-25 21:22:00,11.4,-1.3,30.14,SSW,203,1.0,2.0,56,0.00,,,0.00,Wunderground v.1.15,2013-01-26 02:22:00,
2013-01-25 21:27:00,11.4,-1.7,30.13,SSW,203,0.0,2.0,55,0.00,,,0.00,Wunderground v.1.15,2013-01-26 02:27:00,
2013-01-25 21:32:00,11.4,-1.3,30.13,SSW,203,0.0,1.0,56,0.00,,,0.00,Wunderground v.1.15,2013-01-26 02:32:00,
2013-01-25 21:37:00,11.4,-1.3,30.13,SSW,203,0.0,1.0,56,0.00,,,0.00,Wunderground v.1.15,2013-01-26 02:37:00,
2013-01-25 21:42:00,11.4,-2.8,30.13,SSW,203,0.0,0.0,52,0.00,,,0.00,Wunderground v.1.15,2013-01-26 02:42:00,
2013-01-25 21:47:00,11.4,-2.8,30.13,SSW,203,0.0,0.0,52,0.00,,,0.00,Wunderground v.1.15,2013-01-26 02:47:00,
2013-01-25 21:52:00,11.4,-2.8,30.13,SSW,203,0.0,0.0,52,0.00,,,0.00,Wunderground v.1.15,2013-01-26 02:52:00,
2013-01-25 21:57:00,11.4,-2.4,30.12,SSW,203,0.0,0.0,53,0.00,,,0.00,Wunderground v.1.15,2013-01-26 02:57:00,
2013-01-25 22:02:00,11.4,-2.0,30.12,SSW,203,0.0,0.0,54,0.00,,,0.00,Wunderground v.1.15,2013-01-26 03:02:00,
2013-01-25 22:07:00,11.4,-1.3,30.12,SSW,203,0.0,0.0,56,0.00,,,0.00,Wunderground v.1.15,2013-01-26 03:07:00,
2013-01-25 22:12:00,11.4,-1.3,30.12,SSW,203,0.0,1.0,56,0.00,,,0.00,Wunderground v.1.15,2013-01-26 03:12:00,
2013-01-25 22:17:00,11.2,-1.1,30.12,SSW,203,0.0,1.0,57,0.00,,,0.00,Wunderground v.1.15,2013-01-26 03:17:00,
2013-01-25 22:22:00,11.2,-0.4,30.12,SSW,203,0.0,0.0,59,0.00,,,0.00,Wunderground v.1.15,2013-01-26 03:22:00,
2013-01-25 22:27:00,11.1,-0.1,30.12,SSW,203,0.0,0.0,60,0.00,,,0.00,Wunderground v.1.15,2013-01-26 03:27:00,
2013-01-25 22:32:00,11.1,-0.1,30.12,SSW,203,0.0,0.0,60,0.00,,,0.00,Wunderground v.1.15,2013-01-26 03:32:00,
2013-01-25 22:37:00,11.1,0.3,30.12,SSW,203,0.0,0.0,61,0.00,,,0.00,Wunderground v.1.15,2013-01-26 03:37:00,
2013-01-25 22:42:00,11.1,0.9,30.12,SSW,203,0.0,0.0,63,0.00,,,0.00,Wunderground v.1.15,2013-01-26 03:42:00,
2013-01-25 22:47:00,11.1,1.6,30.12,SSW,203,0.0,0.0,65,0.00,,,0.00,Wunderground v.1.15,2013-01-26 03:47:00,
2013-01-25 22:52:00,11.1,1.6,30.12,SSW,203,0.0,0.0,65,0.00,,,0.00,Wunderground v.1.15,2013-01-26 03:52:00,
2013-01-25 22:57:00,11.1,1.9,30.12,SSW,203,0.0,0.0,66,0.00,,,0.00,Wunderground v.1.15,2013-01-26 03:57:00,
2013-01-25 23:02:00,11.1,2.3,30.12,SSW,203,0.0,0.0,67,0.00,,,0.00,Wunderground v.1.15,2013-01-26 04:02:00,
2013-01-25 23:07:00,10.9,2.4,30.12,SSW,203,0.0,0.0,68,0.00,,,0.00,Wunderground v.1.15,2013-01-26 04:07:00,
2013-01-25 23:12:00,10.9,2.7,30.12,SSW,203,0.0,0.0,69,0.00,,,0.00,Wunderground v.1.15,2013-01-26 04:12:00,
2013-01-25 23:17:00,10.7,2.8,30.12,SSW,203,0.0,0.0,70,0.00,,,0.00,Wunderground v.1.15,2013-01-26 04:17:00,
2013-01-25 23:22:00,10.7,2.8,30.12,SSW,203,0.0,0.0,70,0.00,,,0.00,Wunderground v.1.15,2013-01-26 04:22:00,
2013-01-25 23:27:00,10.7,3.1,30.12,SSW,203,0.0,0.0,71,0.00,,,0.00,Wunderground v.1.15,2013-01-26 04:27:00,
2013-01-25 23:32:00,10.7,3.1,30.12,SSW,203,0.0,0.0,71,0.00,,,0.00,Wunderground v.1.15,2013-01-26 04:32:00,
2013-01-25 23:37:00,10.5,3.3,30.12,SSW,203,0.0,2.0,72,0.00,,,0.00,Wunderground v.1.15,2013-01-26 04:37:00,
2013-01-25 23:42:00,10.5,3.3,30.12,SSW,203,0.0,0.0,72,0.00,,,0.00,Wunderground v.1.15,2013-01-26 04:42:00,
2013-01-25 23:47:00,10.5,3.3,30.12,SSW,203,0.0,1.0,72,0.00,,,0.00,Wunderground v.1.15,2013-01-26 04:47:00,
2013-01-25 23:52:00,10.4,3.5,30.12,SSW,203,0.0,0.0,73,0.00,,,0.00,Wunderground v.1.15,2013-01-26 04:52:00,
2013-01-25 23:57:00,10.4,3.5,30.12,SSW,203,0.0,0.0,73,0.00,,,0.00,Wunderground v.1.15,2013-01-26 04:57:00,